GLENN Weather Reports


time (UTC)temp
F
wind
direction
speed
knots
gust
knots
rain 1hr
in
rain 24hr
in
rain mn
in
humidity
%
barometer
mb
20260905131509 50 148 2.6 4.3 0.00 0.00 0.00 76 1019.5
20260905130008 50 139 2.6 4.3 0.00 0.00 0.00 75 1019.1
20260905124511 50 148 2.6 4.3 0.00 0.00 0.00 75 1019.1
20260905123006 50 140 2.6 6.1 0.00 0.00 0.00 75 1019.0
20260905121504 50 132 4.3 7.0 0.00 0.00 0.00 75 1018.7
20260905120008 50 141 5.2 7.8 0.00 0.00 0.00 75 1018.7
20260905114507 51 139 7.0 9.6 0.00 0.00 0.00 74 1018.4
20260905113003 51 149 4.3 9.6 0.00 0.00 0.00 73 1018.3
20260905111508 51 164 6.1 7.8 0.00 0.00 0.00 73 1018.3
20260905110011 51 161 4.3 7.8 0.00 0.00 0.00 74 1018.3
20260905104513 52 155 4.3 12.2 0.00 0.00 0.00 72 1018.1
20260905103009 53 159 11.3 13.9 0.00 0.00 0.00 72 1017.9
20260905101511 52 153 8.7 13.9 0.00 0.00 0.00 74 1017.8
20260905100005 51 146 9.6 15.6 0.00 0.00 0.00 75 1017.6
20260905094513 52 175 6.1 7.8 0.00 0.00 0.00 72 1017.6
20260905093013 51 95 6.1 9.6 0.00 0.00 0.00 74 1017.5
20260905091515 51 123 1.7 4.3 0.00 0.00 0.00 74 1018.2
20260905090009 51 157 4.3 5.2 0.00 0.00 0.00 74 1018.0
20260905084509 53 161 1.7 2.6 0.00 0.00 0.00 70 1017.2
20260905083020 54 132 0.9 4.3 0.00 0.00 0.00 66 1017.5
20260905081515 55 313 0.0 3.5 0.00 0.00 0.00 63 1016.8
20260905080019 55 282 1.7 7.8 0.00 0.00 0.00 60 1016.3
20260905074513 55 72 0.0 1.7 0.00 0.00 0.00 57 1016.0
20260905073010 55 192 0.0 7.8 0.00 0.00 0.00 55 1015.7
20260905071519 55 188 3.5 7.0 0.00 0.00 0.00 52 1015.7
20260905070023 55 158 7.0 9.6 0.00 0.00 0.00 50 1015.7
20260905064521 59 133 1.7 2.6 0.00 0.00 0.00 44 1015.6
20260905063007 60 331 0.9 3.5 0.00 0.00 0.00 43 1015.3
20260905061517 59 62 0.9 3.5 0.00 0.00 0.00 45 1015.4
20260905060023 60 80 0.9 2.6 0.00 0.00 0.00 43 1015.3
20260905054531 59 92 1.7 2.6 0.00 0.00 0.00 43 1015.0
20260905053028 65 9 0.0 7.0 0.00 0.00 0.00 36 1015.0
20260905051514 65 105 1.7 3.5 0.00 0.00 0.00 33 1014.9
20260905050022 65 110 2.6 3.5 0.00 0.00 0.00 34 1015.0
20260905044524 64 71 1.7 2.6 0.00 0.00 0.00 34 1015.3
20260905043004 66 297 0.9 6.1 0.00 0.00 0.00 34 1015.4
20260905041510 66 109 4.3 6.1 0.00 0.00 0.00 33 1015.3
20260905040027 66 107 4.3 5.2 0.00 0.00 0.00 33 1015.4
20260905034502 66 103 1.7 3.5 0.00 0.00 0.00 34 1015.6
20260905033005 67 79 1.7 3.5 0.00 0.00 0.00 33 1015.6
20260905031509 66 91 1.7 2.6 0.00 0.00 0.00 33 1015.6
20260905030012 66 78 1.7 2.6 0.00 0.00 0.00 35 1015.6
20260905024517 66 57 1.7 2.6 0.00 0.00 0.00 34 1015.4
20260905023010 65 96 0.0 1.7 0.00 0.00 0.00 36 1015.2
20260905021506 65 98 0.9 1.7 0.00 0.00 0.00 37 1015.0
20260905020018 70 107 0.0 0.9 0.00 0.00 0.00 35 1014.7
20260905014518 73 53 0.0 1.7 0.00 0.00 0.00 29 1014.7
20260905013024 74 348 0.0 1.7 0.00 0.00 0.00 29 1014.5
20260905011509 74 74 0.0 0.0 0.00 0.00 0.00 32 1014.3
20260905010010 73 72 0.0 1.7 0.00 0.00 0.00 30 1014.3
20260905004516 74 360 0.0 1.7 0.00 0.00 0.00 28 1014.2
20260905003019 75 298 0.9 2.6 0.00 0.00 0.00 29 1014.2
20260905001527 75 223 1.7 6.1 0.00 0.00 0.00 29 1014.0
20260905000007 77 291 0.9 3.5 0.00 0.00 0.00 27 1013.9
20260904234513 76 300 1.7 2.6 0.00 0.00 0.00 31 1013.9
20260904233019 77 207 0.9 6.1 0.00 0.00 0.00 26 1014.0
20260904231527 76 289 0.9 3.5 0.00 0.00 0.00 26 1014.0
20260904230057 77 331 1.7 5.2 0.00 0.00 0.00 28 1013.7
20260904224520 77 227 1.7 7.8 0.00 0.00 0.00 26 1013.7
20260904223015 78 252 0.9 3.5 0.00 0.00 0.00 27 1013.7
20260904221524 76 317 3.5 7.8 0.00 0.00 0.00 28 1013.7
20260904220029 75 299 1.7 7.0 0.00 0.00 0.00 31 1013.7
20260904214530 75 313 1.7 7.0 0.00 0.00 0.00 30 1013.5
20260904213016 76 318 1.7 7.0 0.00 0.00 0.00 30 1013.3
20260904211521 74 304 3.5 8.7 0.00 0.00 0.00 30 1013.3
20260904210028 75 53 1.7 6.1 0.00 0.00 0.00 29 1013.3
20260904204532 75 338 1.7 7.0 0.00 0.00 0.00 29 1013.2
20260904203012 76 318 3.5 5.2 0.00 0.00 0.00 27 1013.1
20260904201519 76 333 2.6 4.3 0.00 0.00 0.00 28 1013.2
20260904200025 74 335 1.7 3.5 0.00 0.00 0.00 30 1013.1
20260904194529 74 308 2.6 7.0 0.00 0.00 0.00 29 1013.0
20260904193025 74 323 1.7 6.1 0.00 0.00 0.00 29 1013.0
20260904191519 75 309 0.9 6.1 0.00 0.00 0.00 28 1013.0
20260904190003 74 275 3.5 8.7 0.00 0.00 0.00 28 1013.0
20260904184505 73 352 2.6 7.0 0.00 0.00 0.00 29 1013.1
20260904183009 73 26 0.0 7.0 0.00 0.00 0.00 28 1013.1
20260904181514 73 324 6.1 11.3 0.00 0.00 0.00 28 1013.0
20260904180018 74 342 2.6 7.8 0.00 0.00 0.00 29 1012.8
20260904174505 73 17 1.7 9.6 0.00 0.00 0.00 32 1012.8
20260904173008 72 323 4.3 8.7 0.00 0.00 0.00 31 1012.9
20260904171511 73 281 4.3 10.4 0.00 0.00 0.00 31 1012.7
20260904170016 74 349 5.2 9.6 0.00 0.00 0.00 28 1012.3
20260904164523 75 5 1.7 7.8 0.00 0.00 0.00 28 1012.0
20260904163006 73 350 0.9 6.1 0.00 0.00 0.00 28 1012.0
20260904161508 70 340 1.7 6.1 0.00 0.00 0.00 30 1011.7
20260904160016 71 252 3.5 6.1 0.00 0.00 0.00 29 1011.5
20260904154519 73 223 8.7 17.4 0.00 0.00 0.00 24 1011.5
20260904153033 75 215 9.6 13.9 0.00 0.00 0.00 24 1011.2
20260904151508 75 184 2.6 8.7 0.00 0.00 0.00 23 1011.0
20260904150023 74 171 7.8 14.8 0.00 0.00 0.00 20 1010.9
20260904144516 74 142 5.2 10.4 0.00 0.00 0.00 23 1010.6
20260904143023 73 124 8.7 16.5 0.00 0.00 0.00 22 1010.5
20260904141526 73 155 7.0 11.3 0.00 0.00 0.00 23 1010.3
20260904140011 72 146 8.7 14.8 0.00 0.00 0.00 21 1010.0
20260904134521 72 143 10.4 17.4 0.00 0.00 0.00 22 1009.6
20260904133021 72 159 10.4 16.5 0.00 0.00 0.00 21 1009.4